N6YV Weather Reports


Display with metric or nautical units.
time (UTC)temp
F
wind
direction
speed
MPH
gust
MPH
rain 1hr
in
rain 24hr
in
rain mn
in
humidity
%
barometer
mb
20260505113013 44 261 0.0 0.0 0.00 0.00 0.01 95 1004.4
20260505111513 44 261 0.0 0.0 0.00 0.00 0.01 95 1004.3
20260505101518 43 260 0.0 0.0 0.00 0.00 0.01 94 1004.5
20260505100011 43 260 0.0 0.0 0.00 0.00 0.01 95 1004.7
20260505094518 43 260 0.0 0.0 0.00 0.00 0.01 94 1004.7
20260505093007 43 260 0.0 0.0 0.00 0.00 0.01 93 1004.8
20260505091507 44 260 0.0 0.0 0.00 0.00 0.01 93 1004.9
20260505090005 44 260 0.0 0.0 0.00 0.00 0.01 94 1004.9
20260505084504 44 260 0.0 0.0 0.00 0.00 0.01 94 1005.1
20260505083004 44 260 1.0 0.0 0.00 0.00 0.01 94 1005.5
20260505081503 44 260 0.0 0.0 0.00 0.00 0.01 94 1005.4
20260505080002 44 260 0.0 0.0 0.00 0.00 0.01 93 1005.1
20260505074502 44 260 2.0 0.0 0.00 0.00 0.01 93 1004.7
20260505073104 44 155 1.0 0.0 0.00 0.00 0.01 93 1005.4
20260505071557 44 155 0.0 0.0 0.00 0.00 0.00 93 1005.6
20260505070056 44 155 0.0 0.0 0.00 0.00 0.00 93 1005.1
20260505064553 44 150 2.0 0.0 0.00 0.00 0.46 93 1004.8
20260505063112 43 150 2.0 0.0 0.00 0.00 0.44 93 1004.6
20260505061555 43 149 3.0 0.0 0.00 0.00 0.44 93 1004.6
20260505060054 43 150 4.0 0.0 0.00 0.00 0.44 92 1004.3
20260505054607 44 148 3.0 0.0 0.00 0.00 0.44 93 1004.6
20260505053058 44 137 3.0 0.0 0.00 0.00 0.44 93 1004.5
20260505051551 44 85 1.0 0.0 0.00 0.00 0.43 93 1005.0
20260505041555 44 28 3.0 0.0 0.00 0.00 0.42 92 1004.6
20260505040053 44 21 3.0 0.0 0.00 0.00 0.42 91 1004.4
20260505034546 45 101 2.0 0.0 0.00 0.00 0.42 92 1003.9
20260505033045 44 208 4.0 0.0 0.00 0.00 0.42 91 1002.9
20260505031554 45 82 2.0 0.0 0.00 0.00 0.39 89 1004.5
20260505030044 46 82 1.0 0.0 0.00 0.00 0.34 87 1004.3
20260505024555 46 82 1.0 0.0 0.00 0.00 0.34 89 1004.3
20260505023043 46 82 1.0 0.0 0.00 0.00 0.34 88 1003.7
20260505021544 47 61 2.0 0.0 0.00 0.00 0.34 86 1003.7
20260505020042 46 315 7.0 0.0 0.00 0.00 0.34 84 1002.8
20260505014600 46 244 9.0 0.0 0.00 0.00 0.34 89 1002.1
20260505013039 46 274 7.0 0.0 0.00 0.00 0.28 90 1004.6
20260505011539 46 262 10.0 0.0 0.00 0.00 0.23 90 1004.4
20260505010034 46 235 8.0 0.0 0.00 0.00 0.16 88 1004.3
20260505004537 47 224 4.0 0.0 0.00 0.00 0.07 85 1004.4
20260505003030 48 209 7.0 0.0 0.00 0.00 0.05 82 1003.4
20260505001531 49 211 7.0 0.0 0.00 0.00 0.03 80 1002.9
20260505000038 51 173 7.0 0.0 0.00 0.00 0.02 73 1002.3
20260504234533 50 234 9.0 0.0 0.00 0.00 0.02 73 1001.9
20260504233033 52 225 9.0 0.0 0.00 0.00 0.02 71 1002.3
20260504231528 53 210 10.0 0.0 0.00 0.00 0.02 70 1002.1
20260504230026 54 197 7.0 0.0 0.00 0.00 0.02 65 1002.5
20260504224526 54 188 9.0 0.0 0.00 0.00 0.02 64 1002.3
20260504223034 56 198 8.0 0.0 0.00 0.00 0.02 60 1002.4
20260504221527 56 167 6.0 0.0 0.00 0.00 0.02 63 1002.4
20260504220022 55 180 8.0 0.0 0.00 0.00 0.02 63 1002.6
20260504214525 56 211 8.0 0.0 0.00 0.00 0.02 63 1002.8
20260504213033 57 240 9.0 0.0 0.00 0.00 0.02 60 1003.1
20260504211523 55 168 10.0 0.0 0.00 0.00 0.02 65 1003.3
20260504210015 54 214 10.0 0.0 0.00 0.00 0.02 68 1003.5
20260504204532 54 203 9.0 0.0 0.00 0.00 0.02 74 1003.1
20260504203020 50 210 11.0 0.0 0.00 0.00 0.02 84 1003.2
20260504201510 51 209 12.0 0.0 0.00 0.00 0.02 80 1003.7
20260504200011 53 221 8.0 0.0 0.00 0.00 0.01 74 1003.7
20260504194508 53 213 5.0 0.0 0.00 0.00 0.01 76 1003.7
20260504193007 52 124 3.0 0.0 0.00 0.00 0.01 77 1003.7
20260504191506 52 134 4.0 0.0 0.00 0.00 0.01 80 1003.7
20260504190006 51 139 4.0 0.0 0.00 0.00 0.01 79 1003.6
20260504184505 51 132 3.0 0.0 0.00 0.00 0.01 78 1003.7
20260504183004 51 136 3.0 0.0 0.00 0.00 0.01 77 1003.6
20260504181511 51 98 3.0 0.0 0.00 0.00 0.01 78 1003.5
20260504180006 51 76 3.0 0.0 0.00 0.00 0.01 79 1003.5
20260504174504 51 355 3.0 0.0 0.00 0.00 0.01 77 1003.4
20260504173002 51 44 3.0 0.0 0.00 0.00 0.00 74 1003.4
20260504171502 52 44 3.0 0.0 0.00 0.00 0.00 68 1003.5